Probability
0 0 0 0 0 0 0 0 0 0 0 0 0 0 0 0 0 0 0 0 0 0 0 0 0 0 0 0 0 0 0 0 0 0 0 0 0 0 0 0 0 0 1
0 0 0 0 0 0 0 0 0 0 0 0 0 0 0 0 0 0 0 0 0 0 0 0 0 0 0 0 0 0 0 0 0 0 0 0 0 0 0 0 0 0 1
0 0 0 0 0 0 0 0 0 0 0 0 0 0 0 0 0 0 0 0 0 0 0 0 0 0 0 0 0 0 0 0 0 0 0 0 0 0 1 0 0 0 1
0 0 0 0 0 0 0 0 0 0 0 0 0 0 0 0 0 0 0 0 0 0 0 0 0 0 0 0 0 0 0 0 0 0 0 0 0 0 0 0 0 0 0
0 0 0 0 0 0 0 0 0 0 0 0 0 0 0 0 0 0 0 0 0 0 0 0 0 0 0 0 0 0 0 0 0 0 0 0 0 0 0 0 0 0 0
0 0 0 0 0 0 0 0 0 0 0 0 0 0 0 0 0 0 0 0 0 0 0 0 0 0 0 0 0 0 0 0 0 0 0 0 0 0 0 0 0 0 0
0 0 0 0 0 0 0 0 0 0 0 0 0 0 0 0 0 0 0 0 0 0 0 0 0 0 0 0 0 0 0 0 0 0 0 0 0 0 0 0 0 0 0
0 0 0 0 0 0 0 0 0 0 0 0 0 0 0 0 0 0 0 0 0 0 0 0 0 0 0 0 0 0 0 0 0 0 0 0 0 0 0 0 0 0 0
0 0 0 0 0 0 0 0 0 0 0 0 0 0 0 0 0 0 0 0 0 0 0 0 0 0 0 0 0 0 0 0 0 0 0 0 0 0 0 0 0 0 0
0 0 0 0 0 0 0 0 0 0 0 0 0 0 0 0 0 0 0 0 0 0 0 0 0 0 0 0 0 0 0 0 0 0 0 0 0 0 0 0 0 0 0
0 0 0 0 0 0 0 0 0 0 0 0 0 0 0 0 0 0 0 0 0 0 0 0 0 0 0 0 0 0 0 0 0 0 0 0 0 0 0 0 0 0 0
0 0 0 0 0 0 0 0 0 0 0 0 0 0 0 0 0 0 0 0 0 0 0 0 0 0 0 0 0 0 0 0 0 0 0 0 0 0 0 0 0 0 0
0 0 0 0 0 0 0 0 0 0 0 0 0 0 0 0 0 0 0 0 0 0 0 0 0 0 0 0 0 0 0 0 0 0 0 0 0 0 0 0 0 0 0
0 0 0 0 0 0 0 0 0 0 0 0 0 0 0 0 0 0 0 0 0 0 0 0 0 0 0 0 0 0 0 0 0 0 0 0 0 0 0 0 0 0 0
0 0 0 0 0 0 0 0 0 0 0 0 0 0 0 0 0 0 0 0 0 0 0 0 0 0 0 0 0 0 0 0 0 0 0 0 0 0 0 0 0 0 0
0 0 0 0 0 0 0 0 0 0 0 0 0 0 0 0 0 0 0 0 0 0 0 0 0 0 0 0 0 0 0 0 0 0 0 0 0 0 0 0 0 0 0
0 0 0 0 0 0 0 0 0 0 0 0 0 0 0 0 0 0 0 0 0 0 0 0 0 0 0 0 0 0 0 0 0 0 0 0 0 0 0 0 0 0 0
0 0 0 0 0 0 0 0 0 0 0 0 0 0 0 0 0 0 0 0 0 0 0 0 0 0 0 0 0 0 0 0 0 0 0 0 0 0 0 0 0 0 0
0 0 0 0 0 0 0 0 0 0 0 0 0 0 0 0 0 0 0 0 0 0 0 0 0 0 0 0 0 0 0 0 0 0 0 0 0 0 0 0 0 0 0
0 0 0 0 0 0 0 0 0 0 0 0 0 0 0 0 0 0 0 0 0 0 0 0 0 0 0 0 0 0 0 0 0 0 0 0 0 0 0 0 0 0 0
0 0 0 0 0 0 0 0 0 0 0 0 0 0 0 0 0 0 0 0 0 0 0 0 0 0 0 0 0 0 0 0 0 0 0 0 0 0 0 0 0 0 0
0 0 0 0 0 0 0 0 0 0 0 0 0 0 0 0 0 0 0 0 0 0 0 0 0 0 0 0 0 0 0 0 0 0 0 0 0 0 0 0 0 0 0
0 0 0 0 0 0 0 0 0 0 0 0 0 0 0 0 0 0 0 0 0 0 0 0 0 0 0 0 0 0 0 0 0 0 0 0 0 0 0 0 0 0 0
0 0 0 0 0 0 0 0 0 0 0 0 0 0 0 0 0 0 0 0 0 0 0 0 0 0 0 0 0 0 0 0 0 0 0 0 0 0 0 0 0 0 0
0 0 0 0 0 0 0 0 0 0 0 0 0 0 0 0 0 0 0 0 0 0 0 0 0 0 0 0 0 0 0 0 0 0 0 0 0 0 0 0 0 0 0
0 0 0 0 0 0 0 0 0 0 0 0 0 0 0 0 0 0 0 0 0 0 0 0 0 0 0 0 0 0 0 0 0 0 0 0 0 0 0 0 0 0 0
Wind_Speed
3 2 3 3 3 3 3 4 4 4 4 4 4 4 3 3 2 1 1 1 1 1 1 1 2 1 1 1 2 2 2 2 2 2 1 1 1 2 2 3 3 4 4
3 2 2 3 3 3 4 4 4 4 4 4 4 4 3 3 2 2 1 1 1 1 1 1 2 1 2 1 1 2 2 2 2 3 1 1 2 3 2 3 3 3 3
2 2 2 3 3 3 3 4 4 4 4 4 4 4 4 3 3 2 1 1 1 1 1 1 2 2 2 1 2 2 2 2 2 2 2 1 1 1 2 2 2 2 3
2 2 3 3 3 3 3 3 4 3 4 4 4 4 4 3 3 2 2 1 1 1 1 1 1 2 2 2 2 2 2 2 2 2 2 1 1 1 1 2 2 2 2
2 3 4 3 3 3 3 3 3 3 3 4 4 4 4 3 2 2 1 1 1 2 2 1 1 1 2 2 2 2 2 2 2 2 2 1 1 2 2 2 2 2 2
3 4 3 3 2 3 3 3 3 3 3 3 4 4 5 4 6 5 2 1 1 1 2 2 2 2 2 2 2 2 3 3 3 2 2 3 3 3 2 2 2 2 2
4 3 3 2 3 3 3 3 3 3 3 3 4 4 4 5 7 6 5 2 1 1 1 2 2 2 3 1 2 2 2 3 4 4 4 4 4 4 3 3 3 3 3
3 3 3 3 3 3 2 3 3 2 2 3 4 4 4 5 7 6 5 2 1 2 2 1 2 2 2 2 1 2 2 2 3 3 4 5 4 4 4 4 3 2 1
4 4 4 3 3 2 3 3 3 2 3 3 3 3 4 6 8 6 4 1 1 2 2 2 2 2 4 3 1 2 3 3 3 3 4 5 5 6 4 3 3 3 2
5 4 3 3 3 3 3 3 2 2 3 3 3 3 3 4 7 7 4 1 1 2 3 3 3 3 4 3 1 2 3 3 3 3 2 2 2 3 6 5 4 4 2
4 3 3 3 3 3 2 2 2 2 2 3 3 4 3 4 6 6 4 0 0 1 2 2 3 6 6 5 3 1 3 3 2 2 2 2 1 1 2 3 4 4 4
2 2 2 2 2 1 2 2 1 1 2 3 3 4 3 3 4 5 5 2 1 1 2 2 3 6 6 6 4 3 4 3 1 1 1 1 1 1 1 2 3 3 3
3 2 1 1 1 1 1 1 1 1 1 2 2 3 4 3 4 6 5 4 2 0 1 2 4 6 6 4 5 6 4 2 1 1 2 2 1 2 1 1 1 2 2
3 2 1 0 0 1 0 0 0 0 1 1 1 2 3 3 3 3 3 2 3 2 2 3 5 6 4 4 5 4 3 2 1 1 2 2 1 1 1 1 1 1 1
3 2 1 1 0 0 1 0 0 0 1 1 1 1 2 3 4 4 1 1 1 1 2 3 3 4 5 4 4 4 3 3 3 2 2 2 2 2 1 1 1 1 2
3 2 1 1 1 1 1 2 2 2 4 4 3 2 1 2 5 6 5 4 4 4 4 3 3 3 3 4 4 4 3 3 3 3 2 2 2 2 2 2 1 2 2
4 3 2 2 1 1 1 1 1 3 5 7 8 8 6 6 7 7 6 7 8 7 4 3 3 3 3 3 3 3 3 4 3 3 3 3 3 3 2 2 2 2 3
4 4 4 2 2 2 2 1 1 2 2 3 5 8 9 9 10 10 8 6 6 6 4 3 3 3 3 4 4 3 3 4 3 3 3 3 3 3 3 3 3 3 4
4 3 3 2 2 2 2 2 2 2 2 2 3 5 8 7 9 11 9 6 4 4 3 3 3 3 3 4 4 3 4 3 4 4 4 4 4 4 4 4 4 5 5
4 7 6 3 3 3 2 3 2 2 2 2 3 3 3 4 5 5 5 4 4 3 3 3 3 4 4 4 4 4 4 4 5 4 4 4 4 4 5 6 5 5 5
4 5 8 5 3 3 3 3 3 3 2 2 2 3 4 3 3 3 3 3 3 3 3 3 3 3 4 4 4 4 5 4 4 5 5 5 5 5 5 5 6 6 6
5 4 4 4 3 3 3 3 3 3 3 2 2 3 5 3 3 3 3 3 3 2 2 2 2 3 3 3 3 4 4 5 5 5 6 6 6 6 6 6 6 6 6
5 5 4 4 3 5 4 3 2 2 2 2 2 2 2 2 2 2 2 2 2 2 2 2 2 2 3 3 3 3 4 5 5 6 7 7 7 6 6 7 8 8 8
5 6 5 4 4 3 3 2 2 2 2 2 2 2 1 1 2 2 2 2 2 2 2 2 2 4 5 4 3 3 4 5 6 6 8 8 8 8 7 7 8 9 8
5 5 5 4 4 3 3 3 2 2 2 2 1 1 1 1 1 1 1 2 2 2 3 3 3 4 5 6 6 6 8 10 10 8 7 7 9 9 9 9 9 9 9
5 5 4 4 4 3 3 3 2 2 2 1 1 1 0 0 0 1 1 2 2 3 3 3 4 5 6 6 7 9 11 12 12 13 9 7 9 9 9 9 11 10 11
Wind_Direction
269 278 298 303 309 317 319 317 317 320 327 331 334 336 339 343 348 353 303 261 248 259 249 228 242 225 212 209 189 184 196 193 225 262 254 251 223 222 214 205 207 204 206
258 271 287 301 317 326 324 323 325 327 331 331 334 341 342 344 345 341 316 312 264 263 265 244 248 233 224 212 191 193 196 198 207 241 256 235 232 215 207 205 208 203 201
250 265 288 303 311 313 315 323 330 332 335 340 343 342 339 336 334 331 320 313 289 264 251 238 244 221 230 219 204 206 210 209 205 218 244 237 240 216 196 204 197 198 203
232 251 271 282 288 294 307 320 327 332 335 337 338 337 333 332 330 330 340 349 353 342 316 265 245 227 227 217 212 213 207 205 207 215 226 233 239 232 191 200 211 203 204
222 245 261 275 285 293 308 316 323 330 332 333 339 343 342 337 336 339 338 346 1 354 346 330 295 289 250 221 213 208 201 201 198 207 217 220 226 208 205 197 212 217 224
216 242 261 277 286 289 298 310 322 326 330 338 342 340 341 337 346 359 4 360 351 347 335 334 327 334 325 328 301 242 213 203 203 203 215 218 229 218 205 196 195 200 237
220 243 255 261 272 281 294 309 311 314 325 330 332 336 330 324 341 357 10 24 17 346 335 337 342 346 350 324 306 306 280 253 224 206 214 222 216 209 193 202 206 206 218
221 242 247 246 260 277 291 293 295 302 307 310 320 326 324 326 344 355 6 24 23 358 344 323 319 322 330 331 320 315 304 287 259 237 225 230 227 214 204 206 203 193 209
225 238 241 233 246 265 276 279 281 293 301 299 302 318 323 320 338 349 357 10 8 347 339 338 326 312 323 338 334 315 312 308 290 262 254 247 241 230 205 178 181 193 224
227 234 234 222 227 244 258 268 268 266 281 300 308 309 309 310 327 342 350 31 352 332 334 335 336 332 327 339 330 304 305 303 312 317 313 303 263 233 212 203 197 199 202
222 224 227 224 228 237 253 257 267 282 301 311 312 313 310 307 321 336 346 46 247 309 324 326 326 336 340 339 333 287 283 296 299 296 298 300 287 243 224 215 209 204 207
189 199 221 231 239 230 237 271 277 293 315 319 325 326 325 321 322 328 339 334 232 215 294 306 318 337 343 345 343 329 321 323 313 313 309 296 286 274 251 231 222 222 223
150 178 218 244 258 263 230 270 304 320 314 316 328 325 323 329 330 335 338 343 343 225 291 328 344 353 355 358 0 356 355 357 343 330 310 292 276 274 277 262 242 219 221
154 177 178 158 334 353 336 248 224 288 289 307 317 315 318 328 332 332 332 341 357 9 6 5 12 18 19 3 359 1 1 349 332 310 305 298 299 287 271 255 243 228 233
155 162 152 150 143 49 36 34 176 251 188 207 270 280 323 328 329 338 350 360 14 30 41 32 26 19 17 11 5 358 354 358 354 335 323 322 319 309 298 288 255 241 234
150 155 153 146 133 113 83 38 34 57 46 55 49 41 0 348 354 18 37 50 50 64 71 46 28 18 11 2 357 352 352 351 342 335 328 319 315 311 304 294 270 257 256
154 156 147 141 139 131 122 108 48 24 38 43 39 38 40 32 30 34 46 57 55 66 67 46 27 11 360 353 350 345 341 336 334 336 334 327 320 313 305 295 281 268 262
144 144 140 140 136 128 123 116 106 80 40 14 17 30 37 42 43 42 49 65 52 48 48 36 19 6 358 352 349 346 340 343 347 344 339 333 326 318 308 296 284 275 274
141 140 133 124 118 115 109 100 92 85 75 40 18 21 27 39 47 45 51 58 55 42 30 22 14 5 358 351 345 344 343 344 346 344 339 334 328 321 310 303 293 283 275
136 137 129 120 109 102 98 99 95 90 80 62 42 20 12 39 48 39 41 44 46 37 26 19 13 9 4 357 353 354 354 356 354 349 339 331 324 315 306 302 298 293 282
127 127 123 110 105 106 104 104 102 98 90 74 48 36 56 65 57 45 40 36 31 22 16 13 8 6 4 359 359 1 1 355 349 342 336 330 326 319 311 303 297 292 290
126 122 121 120 116 109 108 106 105 103 97 87 56 42 51 64 60 50 36 26 19 14 12 13 9 3 360 357 356 356 353 349 345 339 331 325 321 316 312 308 304 301 295
129 125 120 118 118 118 110 105 107 106 100 90 78 65 56 57 53 43 28 14 8 5 2 6 0 352 349 347 349 349 343 337 329 325 323 321 318 314 311 307 304 303 299
133 132 131 128 123 122 123 121 118 116 112 103 87 75 64 55 46 33 13 0 358 353 348 345 342 339 338 336 332 332 330 326 325 319 316 313 313 311 308 305 303 300 298
136 136 136 137 138 138 137 135 134 130 124 121 114 99 76 57 31 4 352 347 347 343 340 337 333 333 331 330 330 327 325 324 323 321 313 308 306 305 305 302 300 299 296
139 139 140 142 146 150 151 152 153 151 149 149 147 152 164 199 308 325 335 339 334 328 325 324 324 325 324 323 321 320 320 320 319 317 313 305 302 299 301 298 296 294 292